Weather reports worldwide

Advertisment
Estaca de Bares, Spain (8004): temperature & dewpoint: 09.07.2018 20:00:00 - 15.07.2018 20:00:00 (CEST)Estaca de Bares, Spain (8004): wind speed & gusts: 09.07.2018 20:00:00 - 15.07.2018 20:00:00 (CEST)Estaca de Bares, Spain (8004): wind direction: 09.07.2018 20:00:00 - 15.07.2018 20:00:00 (CEST)Estaca de Bares, Spain (8004): reduced air pressure: 09.07.2018 20:00:00 - 15.07.2018 20:00:00 (CEST)Estaca de Bares, Spain (8004): visibility: 09.07.2018 20:00:00 - 15.07.2018 20:00:00 (CEST)Estaca de Bares, Spain (8004): sunshine duration: 09.07.2018 20:00:00 - 15.07.2018 20:00:00 (CEST)Estaca de Bares, Spain (8004): precipitation: 09.07.2018 20:00:00 - 15.07.2018 20:00:00 (CEST)
Date & Time tt [°C] td [°C] ff [km/h] ff [kn] fx [km/h] fx [kn] dd ppp [hPa] vv [km] sd [min] rr [mm]
15.07.2018 20:00:00 19,4 16,8 33 18 37 20 W 1017,0 3,5 0 -
15.07.2018 19:00:00 20,1 17,1 29 16 38 21 W 1016,9 3,6 16 0,0
15.07.2018 18:00:00 20,4 16,8 34 18 37 20 W 1016,7 3,9 44 0,0
15.07.2018 17:00:00 20,6 16,6 32 18 38 21 W 1016,4 3,8 35 0,0
15.07.2018 16:00:00 19,7 16,3 35 19 54 29 W 1016,1 3,7 49 0,0
15.07.2018 15:00:00 19,7 16,3 36 19 41 22 W 1016,0 3,7 13 0,0
15.07.2018 14:00:00 20,5 17,1 24 13 30 16 WNW 1016,3 3,7 10 -
15.07.2018 13:00:00 19,5 16,9 16 9 22 12 W 1016,3 1,1 26 0,0
15.07.2018 12:00:00 18,7 17,0 14 8 24 13 W - - 0 0,0
15.07.2018 11:00:00 18,1 16,8 14 7 21 12 W 1016,4 0,7 0 0,0
15.07.2018 10:00:00 18,0 16,8 14 7 18 10 W 1016,0 1,3 0 0,0
15.07.2018 09:00:00 17,8 16,7 12 7 16 8 W - - 0 0,0
15.07.2018 08:00:00 17,2 16,0 14 8 18 10 W 1015,8 0,1 0 -
15.07.2018 07:00:00 16,6 15,3 13 7 17 9 W 1015,5 0,1 0 0,0
15.07.2018 06:00:00 16,8 15,5 12 7 16 9 W 1015,6 0,1 0 0,0
15.07.2018 05:00:00 17,6 16,1 8 5 16 9 WSW 1015,7 0,7 0 0,0
15.07.2018 04:00:00 17,5 16,0 13 7 22 12 W 1015,9 0,1 0 0,0
15.07.2018 03:00:00 17,7 16,0 19 10 25 13 W 1016,0 0,8 0 0,0
15.07.2018 02:00:00 18,7 17,1 8 5 12 7 W 1016,6 2,9 0 -
15.07.2018 01:00:00 18,4 16,7 9 5 16 9 WSW 1016,7 2,3 0 0,0
15.07.2018 00:00:00 18,6 16,8 10 6 15 8 WNW - - 0 0,0
14.07.2018 23:00:00 19,8 17,9 7 4 11 6 E 1016,4 1,8 0 0,0
14.07.2018 22:00:00 20,0 18,0 9 5 12 7 ENE - - 15 0,0
14.07.2018 21:00:00 21,1 18,5 9 5 16 8 E 1016,0 2,8 20 0,0
14.07.2018 20:00:00 21,7 18,7 10 5 21 12 E 1015,6 3,9 54 -
14.07.2018 19:00:00 22,1 18,5 11 6 21 12 ESE 1016,2 3,9 52 0,0
14.07.2018 18:00:00 21,4 18,6 13 7 27 15 E 1016,1 3,7 25 0,0
14.07.2018 17:00:00 22,6 19,2 15 8 29 16 E 1015,9 3,6 36 0,0
14.07.2018 16:00:00 22,3 18,9 17 9 31 17 E 1015,9 3,3 46 0,0
14.07.2018 15:00:00 22,2 19,2 23 13 34 19 E 1016,1 3,7 36 0,0
14.07.2018 14:00:00 22,1 19,1 21 11 30 16 E 1016,1 3,5 37 -
14.07.2018 13:00:00 21,8 19,1 18 10 28 15 E 1016,1 3,6 9 0,0
14.07.2018 12:00:00 20,3 18,1 19 11 28 15 E 1016,2 3,3 7 0,0
14.07.2018 11:00:00 20,9 18,7 18 10 28 15 E 1016,0 3,3 33 0,0
14.07.2018 10:00:00 20,0 18,3 21 11 33 18 ESE 1016,2 3,0 6 0,0
14.07.2018 09:00:00 19,6 18,1 22 12 29 16 ESE 1015,9 2,8 35 0,0
14.07.2018 08:00:00 19,7 18,5 21 11 34 18 ESE 1015,7 3,0 2 -
14.07.2018 07:00:00 19,5 18,3 27 14 35 19 E 1015,7 2,8 0 0,0
14.07.2018 06:00:00 19,4 18,2 27 15 32 17 ENE 1015,8 0,4 0 0,0
14.07.2018 05:00:00 19,6 18,2 20 11 25 13 ESE 1016,0 1,3 0 0,0
14.07.2018 04:00:00 19,7 18,4 16 8 29 16 E 1016,1 0,2 0 0,0
14.07.2018 03:00:00 19,9 18,5 17 9 27 15 E 1016,2 0,6 0 0,0
14.07.2018 02:00:00 19,8 18,5 17 9 25 14 E 1016,5 0,4 0 -
14.07.2018 01:00:00 19,9 18,4 18 10 27 15 E 1016,3 1,4 0 0,0
14.07.2018 00:00:00 20,0 18,3 19 11 29 16 E 1016,3 0,7 0 0,0
13.07.2018 23:00:00 20,1 18,2 22 12 35 19 E 1016,4 2,2 0 0,0
13.07.2018 22:00:00 20,1 17,9 26 14 39 21 E 1016,2 3,3 4 0,0
13.07.2018 21:00:00 20,6 17,6 23 12 32 17 E 1015,9 3,9 26 0,0
13.07.2018 20:00:00 20,4 17,2 23 12 37 20 E 1015,9 4,0 0 -
13.07.2018 19:00:00 21,4 17,4 24 13 38 21 E 1015,8 4,0 60 0,0
13.07.2018 18:00:00 21,8 17,6 25 14 39 21 E 1015,8 4,1 60 0,0
13.07.2018 17:00:00 21,2 17,0 31 17 43 23 E 1015,8 4,0 60 0,0
13.07.2018 16:00:00 21,4 17,2 31 17 44 24 E 1016,1 4,0 60 0,0
13.07.2018 15:00:00 21,3 17,3 37 20 47 26 E 1016,2 3,6 60 0,0
13.07.2018 14:00:00 21,3 17,5 31 17 41 22 E 1016,5 3,9 60 -
13.07.2018 13:00:00 21,4 17,6 30 16 40 22 E 1016,5 3,9 44 0,0
13.07.2018 12:00:00 20,6 17,2 33 18 41 22 E 1016,2 3,9 40 0,0
13.07.2018 11:00:00 21,0 17,2 28 15 40 21 E 1016,1 4,0 60 0,0
13.07.2018 10:00:00 20,4 17,1 26 14 41 22 E 1016,2 3,9 60 0,0
13.07.2018 09:00:00 19,5 16,7 29 15 38 20 E 1015,9 4,1 12 0,0
13.07.2018 08:00:00 18,8 16,2 29 15 39 21 E 1015,9 3,9 0 -
13.07.2018 07:00:00 18,7 16,1 30 16 44 24 E 1015,9 3,8 0 0,0
13.07.2018 06:00:00 18,9 16,3 36 19 45 25 E 1015,7 3,9 0 0,0
13.07.2018 05:00:00 18,8 16,4 35 19 45 24 E 1015,7 3,9 0 0,0
13.07.2018 04:00:00 18,6 16,6 29 16 38 21 E 1015,8 3,9 0 0,0
13.07.2018 03:00:00 18,8 16,8 27 14 39 21 E 1016,2 3,6 0 0,0
13.07.2018 02:00:00 19,0 17,0 26 14 35 19 E 1016,4 3,6 0 -
13.07.2018 01:00:00 19,2 16,8 27 15 43 23 E 1016,6 3,9 0 0,0
13.07.2018 00:00:00 19,4 16,8 31 17 46 25 E 1016,7 4,0 0 0,0
12.07.2018 23:00:00 19,7 17,1 36 20 49 27 E 1016,3 3,9 0 0,0
12.07.2018 22:00:00 20,1 17,7 34 18 42 23 E 1015,9 3,9 22 0,0
12.07.2018 21:00:00 20,9 18,3 22 12 32 17 E 1015,9 3,7 40 0,0
12.07.2018 20:00:00 21,4 18,4 21 12 32 18 E 1015,8 3,9 47 -
12.07.2018 19:00:00 21,6 18,4 18 10 34 18 E 1015,9 3,9 60 0,0
12.07.2018 18:00:00 21,6 18,0 25 14 32 18 E 1016,0 4,0 60 0,0
12.07.2018 17:00:00 22,5 18,1 16 9 27 14 E 1016,3 3,6 60 0,0
12.07.2018 16:00:00 22,4 17,9 19 11 24 13 E 1016,4 4,1 60 0,0
12.07.2018 15:00:00 23,2 18,9 15 8 19 10 E 1016,5 4,0 60 0,0
12.07.2018 14:00:00 21,3 17,1 10 6 12 7 ENE 1016,8 4,0 60 -
12.07.2018 13:00:00 21,0 16,8 7 4 9 5 ENE 1016,8 3,9 60 0,0
12.07.2018 12:00:00 21,0 16,4 5 3 10 5 W 1016,9 3,9 46 0,0
12.07.2018 11:00:00 20,1 15,7 8 5 16 9 W 1016,8 4,2 37 0,0
12.07.2018 10:00:00 20,0 16,6 14 8 16 9 W 1016,6 4,3 19 0,0
12.07.2018 09:00:00 17,7 15,2 8 4 13 7 WSW 1016,7 3,4 11 0,0
12.07.2018 08:00:00 17,3 14,9 4 2 8 5 W 1016,4 3,9 0 -
12.07.2018 07:00:00 17,0 14,6 10 5 13 7 WSW 1016,2 3,3 0 0,0
12.07.2018 06:00:00 17,3 14,7 4 2 6 3 WNW 1016,3 3,9 0 0,0
12.07.2018 05:00:00 17,5 14,8 4 2 8 5 W 1016,7 3,5 0 0,0
12.07.2018 04:00:00 17,3 14,9 8 4 11 6 WSW 1017,2 3,8 0 0,0
12.07.2018 03:00:00 16,9 14,5 9 5 11 6 WSW 1017,2 3,4 0 0,0
12.07.2018 02:00:00 17,1 14,7 8 4 13 7 WSW 1017,2 3,7 0 -
12.07.2018 01:00:00 17,2 14,8 9 5 12 7 W 1017,5 3,8 0 0,0
12.07.2018 00:00:00 17,6 14,9 9 5 13 7 W 1017,7 3,5 0 0,0
11.07.2018 23:00:00 18,0 15,1 4 2 12 6 WSW 1017,7 3,7 0 0,0
11.07.2018 22:00:00 18,1 14,8 4 2 9 5 WNW 1017,3 3,9 0 0,0
11.07.2018 21:00:00 18,1 14,4 8 5 11 6 W 1017,2 4,1 0 0,0
11.07.2018 20:00:00 19,4 14,9 3 1 11 6 NW 1017,0 3,3 0 -
11.07.2018 19:00:00 20,9 14,8 5 3 17 9 N 1017,2 4,0 43 0,0
11.07.2018 18:00:00 19,7 14,3 11 6 18 10 N 1017,3 4,0 30 0,0
11.07.2018 17:00:00 20,7 14,8 10 5 19 11 N 1017,6 3,7 23 0,0
11.07.2018 16:00:00 20,2 14,5 8 4 19 10 N 1017,7 3,9 15 0,0
11.07.2018 15:00:00 19,7 14,3 9 5 27 15 N 1018,0 3,9 0 0,0
11.07.2018 14:00:00 19,2 14,6 14 8 32 18 N 1018,1 3,6 0 -
11.07.2018 13:00:00 18,9 15,0 18 10 35 19 NNE 1018,0 4,1 0 0,0
11.07.2018 12:00:00 19,0 15,3 22 12 41 22 NNE 1018,0 3,7 0 0,0
11.07.2018 11:00:00 18,5 15,2 23 12 44 24 NNE 1017,9 3,7 0 0,0
11.07.2018 10:00:00 18,5 15,5 27 15 45 24 NNE 1017,6 3,8 0 0,0
11.07.2018 09:00:00 18,5 15,7 29 16 43 23 NNE 1017,3 3,8 0 0,0
11.07.2018 08:00:00 18,6 16,0 28 15 42 23 NNE 1017,0 3,7 0 -
11.07.2018 07:00:00 18,6 16,4 22 12 36 20 NE 1017,2 3,8 0 0,0
11.07.2018 06:00:00 18,7 16,8 25 13 43 23 NE 1017,0 3,7 0 0,0
11.07.2018 05:00:00 18,3 16,8 32 17 43 23 ENE 1017,2 2,9 0 0,0
11.07.2018 04:00:00 18,4 17,1 34 18 44 24 ENE 1017,3 2,9 0 0,0
11.07.2018 03:00:00 19,0 17,9 30 16 39 21 ENE 1017,5 3,5 0 0,0
11.07.2018 02:00:00 19,0 17,9 30 16 36 19 ENE 1017,8 2,5 0 -
11.07.2018 01:00:00 19,4 18,2 27 15 31 17 ENE 1018,3 2,2 0 0,0
11.07.2018 00:00:00 19,8 18,5 26 14 31 17 ENE 1018,4 2,7 0 0,0
10.07.2018 23:00:00 20,1 18,6 25 14 34 18 E 1018,2 2,9 0 0,0
10.07.2018 22:00:00 20,3 18,4 23 12 31 17 E 1017,8 3,5 0 0,0
10.07.2018 21:00:00 20,9 18,7 24 13 28 15 E 1017,7 3,8 8 0,0
10.07.2018 20:00:00 21,6 19,0 16 9 21 11 E 1017,7 3,6 45 -
10.07.2018 19:00:00 22,4 19,2 15 8 26 14 E 1018,0 3,8 60 0,0
10.07.2018 18:00:00 22,0 19,2 18 10 26 14 E 1018,1 3,4 49 0,0
10.07.2018 17:00:00 21,9 19,3 20 11 26 14 E 1018,4 3,7 23 0,0
10.07.2018 16:00:00 22,6 19,3 23 12 27 14 E 1018,6 3,6 60 0,0
10.07.2018 15:00:00 22,5 19,3 21 11 26 14 E 1018,6 3,9 60 0,0
10.07.2018 14:00:00 22,5 19,3 20 11 25 14 E 1019,0 3,8 60 -
10.07.2018 13:00:00 22,0 19,2 21 11 25 14 E 1019,0 3,6 60 0,0
10.07.2018 12:00:00 22,0 19,0 16 9 23 12 E 1019,0 3,1 60 0,0
10.07.2018 11:00:00 21,6 19,1 17 9 24 13 E 1019,1 3,1 59 0,0
10.07.2018 10:00:00 20,9 19,0 14 8 23 12 E 1019,3 3,3 54 0,0
10.07.2018 09:00:00 19,6 18,2 16 8 23 12 E 1019,4 2,4 21 0,0
10.07.2018 08:00:00 - - - - - - - - - - -
10.07.2018 07:00:00 18,9 17,5 16 9 24 13 E 1019,3 2,0 0 0,0
10.07.2018 06:00:00 19,1 17,6 19 10 24 13 E 1019,3 2,3 0 0,0
10.07.2018 05:00:00 19,1 17,5 17 9 29 16 E 1019,4 2,9 0 0,0
10.07.2018 04:00:00 19,1 17,8 23 12 29 15 E 1019,5 3,2 0 0,0
10.07.2018 03:00:00 19,2 17,9 22 12 29 16 E 1019,9 2,8 0 0,0
10.07.2018 02:00:00 19,2 17,9 24 13 30 16 E 1020,1 2,7 0 -
10.07.2018 01:00:00 19,4 17,9 18 10 27 15 E 1020,3 2,2 0 0,0
10.07.2018 00:00:00 19,3 17,8 19 11 31 17 E 1020,6 3,0 0 0,0
09.07.2018 23:00:00 19,5 17,9 24 13 31 17 E 1020,7 3,2 0 0,0
09.07.2018 22:00:00 20,0 17,9 18 10 31 17 E 1020,6 3,2 11 0,0
09.07.2018 21:00:00 20,9 18,1 23 12 30 16 E 1020,3 3,6 60 0,0
09.07.2018 20:00:00 21,5 18,5 19 10 31 17 E 1020,5 3,6 60 -

tt = temperature
td = dewpoint
ff = wind speed
fx = gusts
dd = wind direction
ppp = reduced air pressure
vv = visibility
sd = sunshine duration
rr = precipitation

Next stations